Location: Unspecified
(0.0000°N, 0.0000°E)
Time: 13:49:50
(UTC+00:00)

SEEDS - Visible Passes

Search period start: 18 January 2018 00:00
Search period end: 28 January 2018 00:00
Orbit: 587 x 606 km, 97.5° (Epoch: 18 January)

Date Brightness Start Highest point End Pass type
(mag) Time Alt. Az. Time Alt. Az. Time Alt. Az.
18 Jan ? 19:56:50 10° SW 19:58:33 12° WSW 20:00:17 10° WNW visible
20 Jan ? 18:39:02 10° SSE 18:43:10 50° E 18:47:15 10° N visible
21 Jan ? 18:48:55 10° SSE 18:53:10 73° ENE 18:57:22 10° N visible
22 Jan ? 18:58:54 10° S 19:03:09 79° WSW 19:07:22 10° NNW visible
23 Jan ? 19:09:00 10° S 19:13:09 54° WSW 19:17:17 10° NNW visible
24 Jan ? 19:19:12 10° S 19:23:08 38° WSW 19:27:03 10° NNW visible
25 Jan ? 19:29:31 10° SSW 19:33:08 27° WSW 19:36:42 10° NW visible
26 Jan ? 19:40:02 10° SSW 19:43:06 20° WSW 19:46:10 10° NW visible
27 Jan ? 19:50:51 10° SW 19:53:05 14° WSW 19:55:20 10° WNW visible
